DateTimeUTC,F1_A11,F1_S11,BsB_S11,BsG_S11,BsR_S11,BbsB_S11,BbsG_S11,BbsR_S11,BaB_A11,BaG_A11,BaR_A11,Tu_S11,T_S11,Uu_S11,U_S11,P_S11,T1_A11
2021-09-13T14:00:00Z,00000200,20000000,,,,,,,0000.45,0000.41,0000.11,18.5,25.4,03.2,02.1,0661.5,31.1
2021-09-13T14:01:00Z,00000200,20000000,,,,,,,-000.61,-000.02,0000.43,18.5,25.4,03.3,02.2,0661.5,31.1
2021-09-13T14:02:00Z,00000200,20000000,,,,,,,0000.16,-000.08,-000.24,18.5,25.4,03.4,02.2,0661.4,31.1
2021-09-13T14:03:00Z,00000200,60000000,,,,,,,0000.59,0000.09,0000.11,18.5,25.4,03.4,02.2,0661.4,31.1
2021-09-13T14:04:00Z,00000200,40000000,0000.34,0000.01,0000.03,-000.16,0000.15,0000.13,0000.18,0000.21,-000.20,18.7,25.3,03.5,02.3,0662.4,31.1
2021-09-13T14:05:00Z,00000200,00000000,0001.15,0000.35,0000.20,0000.28,0000.15,-000.05,0000.40,0000.35,0000.49,18.8,25.3,03.6,02.4,0662.4,31.1
2021-09-13T14:06:00Z,00000200,00000000,0000.22,0000.21,0000.11,-000.14,0000.28,0000.38,-000.36,0000.10,0000.10,18.8,25.2,03.6,02.4,0662.3,31.1
2021-09-13T14:07:00Z,00000200,00000000,0001.01,0000.14,0000.09,0000.58,0000.11,0000.04,-000.01,-000.68,-000.07,18.8,25.2,03.5,02.4,0662.4,31.1
2021-09-13T14:08:00Z,00000200,00000000,0000.16,0000.38,0000.33,0000.83,0000.24,-000.02,-000.54,-000.07,-000.26,18.8,25.2,03.4,02.3,0662.4,31.1
2021-09-13T14:09:00Z,00000200,00000000,0000.62,0000.20,0000.18,0000.05,0000.47,-000.09,-000.02,-000.10,-000.18,18.8,25.3,03.5,02.3,0662.4,31.1
2021-09-13T14:10:00Z,00000200,00000000,0000.46,0000.37,0000.23,0000.40,-000.07,0000.06,-000.32,-000.08,-000.14,18.8,25.3,03.3,02.2,0662.3,31.1
2021-09-13T14:11:00Z,00000200,00000000,0000.77,0000.47,0000.14,0000.52,0000.23,0000.31,-000.32,-000.46,-000.13,18.8,25.3,03.1,02.1,0662.2,31.1
2021-09-13T14:12:00Z,00000200,00000000,0000.27,0000.43,0000.05,0000.19,0000.20,-000.11,-000.57,-000.34,-000.48,18.9,25.3,03.0,02.0,0662.3,31.1
2021-09-13T14:13:00Z,00000200,00000000,0000.23,0000.22,0000.02,-000.31,-000.02,-000.00,0000.62,0000.05,0000.06,18.9,25.3,02.9,01.9,0662.3,31.1
2021-09-13T14:14:00Z,00000200,00000000,0000.04,0000.33,0000.33,0000.54,-000.05,0000.21,-000.64,-000.23,-000.11,18.9,25.3,02.7,01.8,0662.4,31.1
2021-09-13T14:15:00Z,00000200,00000000,0000.48,0000.65,0000.07,-000.19,0000.30,0000.03,-000.20,-000.48,-000.03,18.9,25.2,02.7,01.8,0662.4,31.1
2021-09-13T14:16:00Z,00000200,00000000,0000.52,0000.18,-000.12,0000.19,-000.06,-000.36,0000.15,0000.42,0000.02,18.9,25.3,02.7,01.8,0662.5,31.1
2021-09-13T14:17:00Z,00000200,00000000,0000.55,-000.03,-000.26,-000.04,0000.19,-000.01,0000.42,0000.38,-000.01,18.9,25.3,02.7,01.8,0662.5,31.1
2021-09-13T14:18:00Z,00000200,00000000,0000.27,0000.10,0000.06,-000.38,0000.31,-000.06,-000.54,-000.42,0000.11,18.9,25.3,02.7,01.8,0662.5,31.1
2021-09-13T14:19:00Z,00000200,00000000,0001.06,0000.09,0000.20,0000.12,0000.28,-000.03,0000.08,0000.08,-000.26,18.9,25.3,02.6,01.8,0662.4,31.1
2021-09-13T14:20:00Z,00000200,00000000,0000.39,0000.31,0000.16,-000.03,0000.26,-000.09,-000.16,-000.07,0000.09,18.9,25.3,02.6,01.8,0662.3,31.1
2021-09-13T14:21:00Z,00000200,00000000,0000.38,-000.07,0000.27,-000.18,0000.15,-000.08,0000.03,0000.23,0000.09,18.9,25.3,02.4,01.6,0662.3,31.1
2021-09-13T14:22:00Z,00000200,00000000,0000.21,0000.41,-000.01,-000.46,0000.19,-000.21,0000.34,0000.12,0000.24,18.9,25.3,02.5,01.7,0662.4,31.1
2021-09-13T14:23:00Z,00000200,00000000,0000.76,0000.28,-000.17,-000.05,0000.16,0000.21,0000.03,0000.06,0000.16,18.9,25.3,02.5,01.7,0662.4,31.1
2021-09-13T14:24:00Z,00000200,00000000,0000.50,0000.16,0000.30,0000.10,-000.08,0000.14,0000.38,0000.19,0000.23,18.9,25.3,02.6,01.8,0662.3,31.1
2021-09-13T14:25:00Z,00000200,00000000,0000.70,0000.23,0000.32,-000.38,0000.00,-000.01,-000.18,0000.05,-000.32,18.9,25.3,02.6,01.8,0662.3,31.1
2021-09-13T14:26:00Z,00000200,00000000,-000.34,0000.49,0000.37,-000.15,0000.13,-000.10,0000.54,0000.08,0000.51,18.9,25.3,02.5,01.7,0662.4,31.1
2021-09-13T14:27:00Z,00000200,00000000,0000.30,-000.05,0000.17,-000.56,-000.08,0000.12,-000.09,0000.18,-000.16,18.9,25.3,02.6,01.8,0662.3,31.1
2021-09-13T14:28:00Z,00000200,00000000,0000.94,0000.20,0000.43,0000.68,0000.30,0000.23,-000.17,-000.20,-000.33,18.9,25.3,02.6,01.8,0662.3,31.1
2021-09-13T14:29:00Z,00000200,00000000,0001.01,0000.54,0000.10,0000.20,0000.38,-000.04,0000.02,0000.11,0000.37,18.9,25.3,02.6,01.8,0662.3,31.1
2021-09-13T14:30:00Z,00000200,00000000,0000.36,0000.27,0000.14,0000.35,0000.09,0000.06,0000.05,0000.03,0000.17,18.9,25.3,02.5,01.7,0662.3,31.1
2021-09-13T14:31:00Z,00000200,00000000,0000.23,-000.05,0000.19,0000.43,-000.02,0000.09,0000.14,0000.44,-000.14,18.9,25.3,02.6,01.7,0662.3,31.1
2021-09-13T14:32:00Z,00000200,00000000,0000.50,0000.18,0000.18,-000.29,0000.09,-000.13,0000.23,-000.03,0000.10,18.9,25.3,02.6,01.8,0662.3,31.1
2021-09-13T14:33:00Z,00000200,00000000,0000.38,0000.42,0000.01,0000.72,-000.05,0000.15,-000.06,-000.10,0000.08,18.9,25.3,02.6,01.8,0662.2,31.1
2021-09-13T14:34:00Z,00000200,00000000,0001.53,-000.07,0000.08,0000.39,-000.15,-000.45,-000.05,0000.01,0000.14,18.9,25.3,02.6,01.7,0662.3,31.1
2021-09-13T14:35:00Z,00000200,00000000,0000.79,0000.25,-000.17,0000.37,0000.05,-000.17,0000.31,-000.04,0000.14,18.9,25.3,02.5,01.7,0662.3,31.1
2021-09-13T14:36:00Z,00000200,00000000,0000.95,-000.02,0000.05,0000.17,-000.00,-000.41,-000.03,0000.51,-000.18,18.9,25.3,02.5,01.7,0662.4,31.1
2021-09-13T14:37:00Z,00000200,00000000,0000.81,-000.35,0000.14,-000.25,-000.06,0000.30,0000.10,-000.21,0000.12,18.9,25.3,02.5,01.7,0662.3,31.1
2021-09-13T14:38:00Z,00000200,00000000,0000.94,-000.06,0000.27,0000.13,0000.15,0000.02,0000.03,-000.07,-000.02,18.9,25.3,02.5,01.7,0662.4,31.1
2021-09-13T14:39:00Z,00000200,00000000,0001.07,0000.35,0000.16,0000.65,0000.08,-000.34,-000.10,0000.43,0000.24,18.9,25.3,02.4,01.6,0662.3,31.1
2021-09-13T14:40:00Z,00000200,00000000,0001.14,0000.11,-000.12,-000.35,0000.23,-000.15,0000.06,-000.40,-000.34,18.9,25.3,02.4,01.6,0662.3,31.1
2021-09-13T14:41:00Z,00000200,00000000,0000.84,0000.03,-000.12,0000.08,0000.32,-000.28,0000.26,-000.02,0000.17,18.9,25.3,02.5,01.7,0662.3,31.1
2021-09-13T14:42:00Z,00000200,00000000,0000.12,0000.19,0000.19,0000.41,0000.13,-000.24,-000.04,0000.30,-000.03,18.9,25.3,02.4,01.7,0662.4,31.1
2021-09-13T14:43:00Z,00000200,00000000,0000.40,0000.21,0000.09,-000.13,0000.25,0000.13,0000.04,0000.24,0000.23,19.0,25.3,02.4,01.6,0662.4,31.1
2021-09-13T14:44:00Z,00000200,00000000,0000.65,0000.42,0000.19,0000.26,0000.03,-000.05,-000.01,-000.36,0000.07,19.0,25.3,02.4,01.6,0662.3,31.1
2021-09-13T14:45:00Z,00000200,00000000,0001.05,0000.18,0000.31,-000.07,-000.02,0000.12,0000.18,0000.45,-000.06,18.9,25.3,02.4,01.6,0662.3,31.1
2021-09-13T14:46:00Z,00000200,00000000,0000.80,0000.15,0000.18,0000.19,0000.52,-000.36,0000.15,-000.07,0000.03,18.9,25.3,02.5,01.7,0662.3,31.1
2021-09-13T14:47:00Z,00000200,00000000,0000.76,-000.03,-000.03,0000.16,-000.00,-000.13,-000.10,-000.28,0000.21,18.9,25.3,02.4,01.6,0662.3,31.1
2021-09-13T14:48:00Z,00000200,00000000,0000.26,0000.13,0000.12,0000.27,0000.05,-000.36,0000.39,0000.54,0000.11,19.0,25.3,02.5,01.7,0662.4,31.1
2021-09-13T14:49:00Z,00000200,00000000,0000.59,0000.28,-000.30,0000.44,0000.24,-000.28,0000.16,-000.15,-000.09,19.0,25.3,02.4,01.6,0662.4,31.1
2021-09-13T14:50:00Z,00000200,00000000,0000.86,0000.23,-000.02,0000.02,0000.06,-000.02,-000.01,0000.33,0000.28,18.9,25.3,02.5,01.7,0662.3,31.1
2021-09-13T14:51:00Z,00000200,00000000,0000.48,0000.12,-000.02,0000.63,0000.06,0000.22,-000.24,0000.05,-000.28,18.9,25.3,02.4,01.6,0662.4,31.1
2021-09-13T14:52:00Z,00000200,00000000,0000.95,0000.44,0000.26,0000.35,0000.18,-000.06,-000.04,-000.32,0000.17,18.9,25.3,02.5,01.7,0662.3,31.1
2021-09-13T14:53:00Z,00000200,00000000,0000.81,0000.45,0000.31,0000.74,0000.26,0000.25,0000.09,-000.01,-000.11,18.9,25.3,02.3,01.5,0662.3,31.1
2021-09-13T14:54:00Z,00000200,00000000,0000.62,0000.18,0000.14,-000.22,-000.12,0000.04,-000.09,-000.28,-000.29,18.9,25.3,02.3,01.5,0662.4,31.1
2021-09-13T14:55:00Z,00000200,00000000,-000.05,0000.58,0000.21,0000.24,0000.20,0000.02,-000.05,0000.52,0000.46,18.9,25.3,02.3,01.5,0662.4,31.1
2021-09-13T14:56:00Z,00000200,00000000,0001.15,0000.14,0000.28,-000.36,0000.03,0000.30,0000.43,0000.01,-000.12,18.9,25.3,02.2,01.5,0662.5,31.1
2021-09-13T14:57:00Z,00000200,40000000,,,,,,,0000.83,0000.66,0000.85,19.0,25.4,02.5,01.7,0662.4,31.1
2021-09-13T14:58:00Z,00000200,60000000,,,,,,,-000.65,-000.36,-000.62,18.7,25.4,02.4,01.6,0661.4,31.1
2021-09-13T14:59:00Z,00000200,20000000,,,,,,,0000.02,-000.31,0000.11,18.7,25.5,02.3,01.5,0661.4,31.1
